This is the latest recevied weather packets stored in our database for station/object KG4LKY-5. If no packets are shown the sender has not sent any weather packets the latest 10 day(s).
| Time | Temp. | Humidity | Pressure | Rain* | Wind** | Luminosity | Snow |
|---|---|---|---|---|---|---|---|
| 1777951296 | 18.33° C | 54% | 1011.1 hPa | 1.78 mm | - | - | - |
| 1777950995 | 17.78° C | 56% | 1011.1 hPa | 1.78 mm | - | - | - |
| 1777950695 | 18.33° C | 56% | 1011.2 hPa | 1.78 mm | - | - | - |
| 1777950395 | 18.89° C | 53% | 1011.2 hPa | 1.78 mm | - | - | - |
| 1777950094 | 18.89° C | 55% | 1011.3 hPa | 1.78 mm | - | - | - |
| 1777949794 | 18.89° C | 53% | 1011.2 hPa | 1.78 mm | - | - | - |
| 1777949494 | 18.89° C | 55% | 1011.1 hPa | 1.78 mm | - | - | - |
| 1777949194 | 17.78° C | 55% | 1011.2 hPa | 1.78 mm | - | - | - |
| 1777948894 | 18.89° C | 54% | 1011.1 hPa | 1.78 mm | - | - | - |
| 1777948593 | 18.33° C | 51% | 1011.1 hPa | 1.78 mm | - | - | - |
| 1777948293 | 18.89° C | 53% | 1011.1 hPa | 1.78 mm | - | - | - |
| 1777947992 | 18.89° C | 53% | 1011.2 hPa | 1.78 mm | - | - | - |
| 1777947692 | 18.89° C | 54% | 1011.1 hPa | 1.78 mm | - | - | - |
| 1777947391 | 18.89° C | 54% | 1011.2 hPa | 1.78 mm | - | - | - |
| 1777947091 | 18.89° C | 54% | 1011.2 hPa | 1.78 mm | - | - | - |
| 1777946791 | 18.33° C | 54% | 1011.2 hPa | 1.78 mm | - | - | - |
| 1777946490 | 18.33° C | 55% | 1011.2 hPa | 1.78 mm | - | - | - |
| 1777946191 | 19.44° C | 54% | 1011.2 hPa | 1.78 mm | - | - | - |
| 1777945890 | 19.44° C | 52% | 1011.1 hPa | 1.78 mm | - | - | - |
| 1777945589 | 18.33° C | 54% | 1011.2 hPa | 1.78 mm | - | - | - |
| 1777945289 | 18.89° C | 54% | 1011.2 hPa | 1.78 mm | - | - | - |
| 1777944989 | 19.44° C | 51% | 1011.2 hPa | 1.78 mm | - | - | - |
| 1777944388 | 18.89° C | 54% | 1011.2 hPa | 1.78 mm | - | - | - |
| 1777944088 | 18.33° C | 57% | 1011.2 hPa | 1.78 mm | - | - | - |
| 1777943788 | 18.89° C | 56% | 1011.1 hPa | 1.78 mm | - | - | - |
* Rain since midnight (hover to see other rain measurements)
** Current wind speed in m/s (hover to see current wind gust speed)